Location: Emory University Observatory
(33.7903°N, 84.3267°W)
Time: 15:58:52
(UTC-04:00)

Envisat - Pass Details

Date: 16 October 2017
Orbit: 764 x 766 km, 98.2° (Epoch: 20 October)

Event Time Altitude Azimuth Distance (km) Brightness Sun altitude
Exits shadow 22:26:29 11° 321° (NW) 2,254 5.9 -42.8°
Drops below altitude 10° 22:26:37 10° 321° (NW) 2,295 5.9 -42.8°
Sets 22:29:17 0° 334° (NNW) 3,234 6.7 -43.3°
